Regional Weather Roundup
Issued by NWS

Home | Current Version | Previous Version | Graphics & Text | Print | Product List | Glossary On
Versions: 1 2 3 4 5 6 7 8 9 10 11 12 13 14 15 16 17 18 19 20 21 22 23 24 25 26 27 28 29 30 31 32 33 34 35 36 37 38 39 40 41 42 43 44 45 46 47 48 49 50
695
ASUS45 KPSR 231710
RWRAZ

ARIZONA HOURLY REGIONAL WEATHER ROUNDUP
NATIONAL WEATHER SERVICE PHOENIX AZ
1000 AM MST MON JAN 23 2017

NOTE: FAIR INDICATES FEW OR NO CLOUDS BELOW 12,000 FEET WITH NO
SIGNIFICANT WEATHER AND/OR OBSTRUCTIONS TO VISIBILITY.

AZZ001>003-036-231800-
NORTHWEST ARIZONA

CITY           SKY/WX    TMP DP  RH WIND       PRES   REMARKS
BULLHEAD CITY  SUNNY     55  46  71 S15       29.83R
KINGMAN          N/A     46  38  73 S32G40    29.80R
$$

AZZ004>008-015-016-018-231800-
NORTH CENTRAL ARIZONA

CITY           SKY/WX    TMP DP  RH WIND       PRES   REMARKS
GRAND CANYON   LGT SNOW  32  32 100 SW25G45   29.76S FOG     WCI  19
WILLIAMS       CLOUDY    32  30  93 S20G40    29.79F FOG     WCI  20
PRESCOTT       LGT RAIN  37  35  92 S15       29.87R FOG     WCI  28
FLAGSTAFF      SNOW      30  30 100 SW23G41   29.79R VSB 1/4 WCI  17
PAYSON         LGT RAIN  37  36  93 S9G18     29.95S WCI  31
PAGE           MOSUNNY   46  31  55 S21G30    29.66F
$$

AZZ009>014-017-231800-
NORTHEAST ARIZONA

CITY           SKY/WX    TMP DP  RH WIND       PRES   REMARKS
WINSLOW        MOSUNNY   47  33  58 S30G40    29.83F
SAINT JOHNS    SUNNY     50  31  48 SW35G44   29.86F
SHOW LOW       LGT RAIN  37  23  56 S29G38    29.92R WCI  25
$$

AZZ023-231800-
GREATER PHOENIX AREA

CITY           SKY/WX    TMP DP  RH WIND       PRES   REMARKS
PHOENIX        PTSUNNY   57  39  51 CALM      29.91R
BUCKEYE        CLOUDY    55  46  71 CALM      29.92R
GLENDALE       PTSUNNY   54  45  71 CALM      29.92R
LUKE AFB       PTSUNNY   55  41  58 SE5       29.90R
DEER VALLEY    CLOUDY    54  41  61 E8        29.91S
SCOTTSDALE     CLOUDY    54  40  59 CALM      29.93R
MESA-GATEWAY   PTSUNNY   55  37  50 SE9       29.93R
CHANDLER       CLOUDY    59  36  41 S9        29.92R
$$

AZZ027-028-231800-
SOUTHWEST MARICOPA COUNTY AND PINAL COUNTY

CITY           SKY/WX    TMP DP  RH WIND       PRES   REMARKS
CASA GRANDE    CLOUDY    59  37  44 S20       29.93F
GILA BEND      CLOUDY    60  46  59 S14G24    29.89S
$$

AZZ503-504-507>509-231800-
SOUTHEAST ARIZONA

CITY           SKY/WX    TMP DP  RH WIND       PRES   REMARKS
TUCSON         SUNNY     61  24  24 S14       29.99S
DAVIS-MONTHAN  SUNNY     61  26  26 S9        29.99R
RYAN FIELD     SUNNY     63  37  39 S22       29.98S
NOGALES        MOSUNNY   59  23  25 S14       30.04R
SIERRA VISTA   MOSUNNY   58  33  38 S9G22     30.05S
DOUGLAS        SUNNY     54  34  46 S12       30.06F
SAFFORD        SUNNY     54  32  43 E13G18    29.98S
$$

AZZ020-021-025-026-031-231800-
SOUTHWEST ARIZONA

CITY           SKY/WX    TMP DP  RH WIND       PRES   REMARKS
YUMA           DRIZZLE   60  52  74 NW6       29.92R
$$

CAZ031-033-041-043-047-048-061-231800-
SOUTHERN CALIFORNIA

CITY           SKY/WX    TMP DP  RH WIND       PRES   REMARKS
DOWNTOWN L.A.  NOT AVBL
L.A. AIRPORT   PTSUNNY   55  46  71 SW13      29.89S
SAN DIEGO      LGT RAIN  56  46  69 W9        29.99R
BURBANK        LGT RAIN  48  41  76 S5        29.88R
ONTARIO        LGT RAIN  47  43  86 W14       29.91R
PALM SPRINGS   LGT RAIN  52  43  71 N5        29.90R
EL CENTRO NAS  MOSUNNY   59  41  51 SW21      29.93R
IMPERIAL       SUNNY     59  41  51 SW20G28   29.89F
BLYTHE         SUNNY     60  44  55 SW26G33   29.87R
NEEDLES        PTSUNNY   59  45  59 SW15      29.84R
$$

NVZ020-UTZ003-231800-
SOUTHERN NEVADA-UTAH

CITY           SKY/WX    TMP DP  RH WIND       PRES   REMARKS
LAS VEGAS      PTSUNNY   48  30  49 S16G24    29.76R
SALT LAKE CITY LGT RAIN  38  33  82 S20G29    29.48S WCI  28
$$

NMZ009-TXZ055-231800-
NEW MEXICO-WEST TEXAS

CITY           SKY/WX    TMP DP  RH WIND       PRES   REMARKS
ALBUQUERQUE    MOSUNNY   39  30  70 S7        29.97S WCI  34
EL PASO        MOSUNNY   49  28  44 S8        30.05S
$$


........................KEY........................
SKY/WX - SKY CONDITION/WEATHER
TMP    - TEMPERATURE IN FAHRENHEIT
DP     - DEW POINT IN FAHRENHEIT
RH     - RELATIVE HUMIDITY IN PERCENT
WIND   - DIRECTION AND SPEED IN MILES PER HOUR (MPH)
VRB    - VARIABLE WIND DIRECTION
PRES   - MEAN SEA LEVEL PRESSURE IN INCHES OF MERCURY
         F - FALLING PRESSURE   R - RISING PRESSURE
         S - STEADY PRESSURE
VSB    - VISIBILITY IN MILES
HX     - HEAT INDEX IN FAHRENHEIT
WCI    - WIND CHILL INDEX IN FAHRENHEIT
TC     - TEMPERATURE IN CELSIUS WHICH IS ALSO KNOWN AS
         TEMPERATURE IN CENTIGRADE
AFB    - AIR FORCE BASE
         LUKE AFB IS LUKE AIR FORCE BASE
         DAVIS-MONTHAN IS DAVIS-MONTHAN AIR FORCE BASE
NAS    - NAVAL AIR STATION
         EL CENTRO NAS IS EL CENTRO NAVAL AIR STATION
N/A    - NOT AVAILABLE





USA.gov is the U.S. government's official web portal to all federal, state and local government web resources and services.